Theta_e
293 293 294 293 293 294 294 294 295 296 296 297 297 298 298 299 300 300 301 301 300 301 302 306 311 313 313 312 309 306 305 304
293 293 294 294 294 294 294 294 294 295 295 295 296 296 296 296 297 297 298 298 298 298 298 299 300 302 306 308 309 306 304 304
293 293 293 293 293 293 293 293 293 293 294 294 295 295 295 296 296 296 296 296 296 296 296 297 298 298 299 301 303 304 304 304
292 291 291 291 291 291 292 291 290 290 291 292 292 292 292 293 294 294 294 294 293 293 293 295 297 300 301 302 302 302 303 303
290 290 290 290 290 289 289 289 288 288 288 288 289 289 289 289 290 290 290 290 290 290 290 290 291 295 296 296 299 300 301 301
290 289 289 288 288 288 287 286 286 286 286 286 286 286 286 286 286 286 286 287 287 287 287 287 288 291 292 292 294 295 296 295
290 289 288 288 287 287 286 285 284 284 284 284 283 284 284 284 284 284 284 285 285 285 285 285 286 291 293 294 292 290 290 291
289 288 287 286 286 285 284 283 282 282 282 282 282 282 283 283 283 284 284 284 283 283 283 283 284 290 292 292 290 289 289 288
288 288 287 285 284 283 282 282 282 281 281 281 281 281 281 281 281 282 282 282 282 282 282 281 282 289 290 290 288 287 287 287
287 287 285 284 283 282 282 282 281 282 281 281 280 280 279 279 282 283 283 279 281 281 281 280 282 288 289 288 286 286 286 286
285 285 283 283 282 281 281 279 280 280 280 280 279 277 278 279 281 281 279 282 282 281 280 281 283 286 287 287 285 285 285 283
283 283 283 282 280 279 279 278 279 278 278 277 277 276 276 277 277 278 278 280 277 280 280 278 282 282 285 287 285 285 284 282
283 282 282 280 277 276 276 278 275 277 279 279 274 279 277 272 275 278 282 281 282 281 280 279 281 282 284 286 287 287 282 281
279 278 278 274 273 274 275 274 274 272 275 279 279 280 282 280 278 276 275 280 279 279 279 278 277 276 284 285 287 286 282 282
273 274 273 271 273 271 272 271 265 268 272 277 279 280 281 282 280 278 272 273 275 274 275 274 274 275 278 284 284 284 282 282
272 273 274 272 270 268 269 265 266 267 271 274 277 280 281 281 280 279 275 277 275 276 273 272 269 273 283 283 280 278 280 276
274 274 273 268 266 265 262 261 261 266 269 271 272 276 279 279 278 282 284 284 285 285 281 273 280 284 285 285 285 285 283 279
274 273 272 270 268 264 259 258 259 262 266 268 271 276 277 276 270 272 274 282 281 282 285 284 283 284 285 286 285 285 282 276
267 267 268 266 264 260 257 256 259 261 264 266 270 275 277 273 269 270 268 269 273 277 279 283 285 286 286 285 281 275 274 273
264 263 260 260 261 257 257 259 259 262 265 267 270 273 274 272 270 270 271 268 272 273 275 273 278 278 278 277 272 270 268 268
Wind_Speed
9 9 8 8 8 9 8 8 7 7 7 5 6 5 5 4 5 6 6 5 6 7 7 8 11 10 8 9 7 9 9 8
7 7 7 8 10 10 12 12 11 10 7 7 6 6 5 5 6 6 6 6 6 7 7 8 8 8 11 12 11 10 9 10
7 7 8 9 10 9 9 10 10 8 7 6 6 6 6 5 6 6 7 5 6 6 7 7 8 8 10 11 11 13 14 14
7 7 7 7 8 9 9 10 11 11 12 12 11 10 9 8 8 7 7 6 6 6 7 8 9 9 11 13 13 13 14 14
4 3 2 1 2 3 4 5 6 7 7 7 10 10 10 9 8 8 7 7 7 6 7 7 7 8 10 9 13 13 12 12
4 4 2 1 1 3 4 2 4 4 4 5 5 6 7 7 8 8 8 7 7 7 6 6 6 7 9 9 11 12 12 9
4 6 7 8 8 7 8 9 6 7 7 6 6 7 7 8 9 8 7 7 7 7 7 7 5 11 16 13 9 9 9 10
5 5 5 6 6 7 7 6 7 6 6 6 6 7 8 9 9 10 11 9 9 8 6 6 6 14 15 14 8 7 7 7
4 5 6 5 4 5 4 5 6 6 5 5 7 7 7 7 8 8 6 8 9 9 9 7 6 12 13 12 6 6 7 7
2 2 4 6 6 7 9 7 7 8 9 8 8 9 9 8 11 10 8 5 5 6 8 7 7 12 10 9 5 6 7 6
3 2 4 4 4 5 6 6 7 6 9 8 8 8 9 9 11 7 6 9 7 8 6 7 7 12 12 10 4 6 5 2
3 5 6 3 2 6 6 6 5 7 7 7 6 7 7 7 6 7 7 7 5 7 6 6 5 7 12 13 5 5 3 2
5 6 5 3 1 4 5 4 5 6 10 11 8 8 6 6 7 8 9 8 8 7 6 4 4 8 9 10 11 7 2 2
5 5 3 2 2 5 5 6 7 7 8 10 11 10 9 8 8 7 5 7 7 6 6 6 4 4 10 11 8 6 1 2
3 5 5 3 3 5 6 5 4 7 8 8 9 10 8 6 4 4 4 5 5 5 6 5 4 4 4 3 3 5 3 4
3 5 6 2 2 4 4 3 6 6 7 8 8 10 8 6 5 5 5 5 4 5 4 4 4 3 8 3 2 1 2 2
6 6 4 2 2 3 3 3 4 8 6 6 7 8 8 7 5 5 6 11 11 10 6 3 8 7 1 5 5 6 5 3
7 7 7 6 5 3 3 3 4 7 8 7 8 8 8 6 3 4 4 2 9 16 15 4 3 1 3 6 6 8 6 3
7 7 7 7 7 4 3 4 6 7 10 8 7 8 7 5 4 2 1 2 3 7 12 16 13 10 6 11 9 6 8 5
9 6 5 6 8 4 4 6 7 7 7 7 7 7 7 3 3 1 2 1 2 3 3 8 10 15 17 18 6 5 5 5
Wind_Direction
25 18 17 18 6 25 23 23 13 17 16 359 345 341 322 306 281 275 267 243 239 241 234 243 248 248 239 240 221 218 222 220
24 21 19 21 23 18 22 18 17 12 2 7 357 350 343 325 302 278 274 250 239 235 238 236 235 233 242 245 249 236 224 218
34 25 28 22 18 16 14 19 7 355 357 2 358 353 353 332 313 288 275 276 259 251 241 238 232 226 228 237 239 243 246 245
36 35 27 16 12 10 8 9 2 0 0 359 360 354 352 336 325 319 311 293 281 257 248 245 239 240 240 243 243 241 240 240
45 39 35 360 335 338 342 0 346 341 347 350 349 345 340 329 327 326 318 306 302 280 263 252 246 248 253 253 258 256 250 247
14 4 1 80 70 22 30 11 334 329 344 340 314 310 311 322 323 321 321 311 296 293 283 267 252 252 249 243 243 249 251 244
22 20 16 10 359 354 354 349 350 355 350 340 342 335 331 328 327 318 314 314 312 305 289 287 262 258 260 254 248 241 246 252
11 11 5 3 347 345 333 326 336 337 332 332 332 332 333 328 329 333 331 326 320 310 302 293 288 290 280 265 253 243 243 246
350 347 350 345 330 305 304 323 333 329 327 329 332 323 318 320 319 321 316 321 316 314 311 306 294 305 297 280 261 249 245 243
280 294 314 321 330 339 335 339 338 334 335 335 332 327 325 321 325 317 299 299 290 292 299 297 293 310 311 298 271 262 254 247
248 265 294 293 309 309 302 319 313 325 319 315 311 307 313 313 320 307 290 297 302 302 293 292 300 313 316 310 271 270 265 245
253 258 263 276 278 292 309 302 308 309 303 298 296 296 288 301 300 301 295 293 290 292 292 284 295 305 317 312 294 262 258 254
252 263 285 297 157 288 289 293 301 307 314 316 312 317 310 308 313 306 307 302 303 304 302 284 291 304 309 310 300 271 216 252
238 278 311 302 173 294 287 327 323 318 311 316 315 313 314 310 313 312 303 300 304 301 303 302 300 293 312 309 304 138 66 297
304 305 310 271 269 248 298 308 310 301 294 299 300 303 298 292 273 287 290 293 292 297 299 298 306 304 305 307 71 88 23 353
260 271 276 239 248 289 305 321 311 291 294 299 298 302 299 282 288 291 260 251 267 276 266 284 300 279 307 100 78 63 53 21
277 278 284 272 248 296 329 352 322 310 304 302 303 298 292 288 297 289 17 15 346 303 279 260 261 297 329 100 97 91 54 43
331 314 310 314 326 323 322 320 295 290 297 291 286 288 289 283 258 265 309 332 25 18 4 290 270 253 135 116 104 81 68 44
305 300 299 308 304 317 317 298 286 278 273 273 276 280 280 257 243 224 224 303 326 1 4 18 47 55 83 100 74 45 32 41
295 282 307 313 300 316 300 295 286 286 281 277 278 275 269 231 186 162 98 35 337 340 358 2 26 57 55 58 65 76 58 47